{"data":{"norad_id":59499,"intl_designator":"2024-071R","name":"STARLINK-31742","alt_names":[],"object_type":"PAYLOAD","status":"ACTIVE","operator":null,"country":"US","launch_date":"2024-04-13","launch_site_code":"AFETR","launch_vehicle":null,"mission":null,"orbit_class":"UNKNOWN","rcs_meters":null,"size_class":null,"mass_kg":null,"dimensions":null,"purposes":["comms"],"wikipedia_slug":null,"has_3d_model":false,"image_url":null,"decayed_at":null,"tle_current":{"epoch":"2026-09-21T14:58:28.342560Z","epoch_age_seconds":68090,"freshness":"FRESH","line1":"1 59499U 24071R   26264.62393915 -.00002022  00000+0 -63955-4 0  9997","line2":"2 59499  43.0019 313.0007 0001093 265.9711  94.1015 15.27591342138172","mean_motion":15.27591342,"eccentricity":0.0001093,"inclination_deg":43.0019,"raan_deg":313.0007,"arg_perigee_deg":265.9711,"mean_anomaly_deg":94.1015,"bstar":-6.3955e-5,"rev_number":13817,"period_min":94.26604880561,"perigee_km":482.26521029325,"apogee_km":483.76505814979,"semimajor_km":6861.1521342215,"source":"CELESTRAK","updated_at":"2026-09-22T09:00:48.959862Z"}}}